Location: Sauerland
(51.1981°N, 7.8053°E)
Time: 09:30:39
(UTC+02:00)

ISS - Visible Passes

Search period start: 20 September 2017 00:00
Search period end: 30 September 2017 00:00
Orbit: 401 x 407 km, 51.6° (Epoch: 20 September)

Date Brightness Start Highest point End Pass type
(mag) Time Alt. Az. Time Alt. Az. Time Alt. Az.
20 Sep -1.9 05:48:53 16° SSW 05:48:53 16° SSW 05:50:20 10° S visible
25 Sep -1.1 21:19:12 10° SSW 21:19:18 11° SSW 21:19:18 11° SSW visible
26 Sep -1.9 20:27:44 10° S 20:29:37 15° SE 20:29:37 15° SE visible
27 Sep -2.7 21:10:13 10° SW 21:12:24 31° S 21:12:24 31° S visible
28 Sep -2.6 20:18:13 10° SSW 20:21:00 26° SSE 20:22:21 19° ESE visible
28 Sep -1.4 21:53:54 10° WSW 21:55:00 19° WSW 21:55:00 19° WSW visible
29 Sep -3.8 21:01:32 10° WSW 21:04:47 62° SSE 21:04:48 61° SSE visible
